STARLINK-2592 (48408 NORAD) Tracking and Keplerian Element Data

This shows tracking and keplerian element data for the satellite.

Feedback or suggestion? Click here.




ElementValue
Catalog48408
NameSTARLINK-2592
Epoch Orbit365
Epoch Day214.91667824
Epoch Year2021
RAAN322.4503
Inclination53.0477
Eccentricity0.0001449
Argument of Perigee82.5925
Mean Anonmoly107.9185
Mean Motion15.08458322
Decay Rate-0.01130272
L11 48408U 21038BH 21214.91667824 -.01130272 00000-0 -77868-1 0 9996
L22 48408 53.0477 322.4503 0001449 82.5925 107.9185 15.08458322 3653

Live tracking and technical data element details for STARLINK-2592 (NORAD 48408). STARLINK-2592 can be tracked NOW for your location showing map with azimuth and elevation plus other details from your city location.

Track the satellite on the map from your city or location and see movement details for azimuth, elevation, latitude, longitude, range, height, and movement on the map or in text.







IsCatalogInMostPopularTable: catalog: 48408, numindb: 28
Update: records affected: 1



GetName: 48408 STARLINK-2592

Hit Count: updated at: Tue, 03 Aug 2021 20:35:30 GMT